Volver al catálogo

STARLINK-37465

ActivoComunicacionesSSO
NORAD 68847·PAYLOAD·🇺🇸 United States

Lanzado Apr 26, 2026 desde Vandenberg Space Force Base

Loading…

Próximos Pases (próximas 24 horas)

TLE

ActualizadoSource: CelesTrak SupGP

Época: Sep 15, 2026, 04:01 UTC

1 68847C 26094J   26258.16784722 -.00058618  00000+0 -18200-2 0  2584
2 68847  97.2831 271.3443 0001428  89.8383 102.8042 15.33463325    16

Sigue STARLINK-37465 en tiempo real con AllMySat

Download on the App Store